World > North America > United States > Nebraska   Omaha, NE Website

Omaha, Nebraska Regional Weather

Lat: 41.26N, Lon: 96.01W
Wx Zone: NEZ052Web Search

Helpful Tip: You can add this page to Bookmarks by pressing the Ctrl key & d key at the same time. Mac users press command & d.

Feedback


°F Click to change Omaha hourly weather to Imperial units.Click to change Omaha hourly weather to Metric units. °C
Omaha Weather Map
UTC Time: 6/15/2021, 10:00
Your Time:

Omaha, NE Regional Weather

Expires:202106151000;;296601
ASUS43 KOAX 150927
RWRNE 

WEATHER ROUNDUP FOR NEBRASKA
NATIONAL WEATHER SERVICE OMAHA NE
400 AM CDT TUE JUN 15 2021

NOTES: SATELLITE DATA IS BEING USED TO AUGMENT CLOUD COVER ABOVE
       12000 FEET.
       "FAIR" INDICATES FEW OR NO CLOUDS BELOW 12,000 FEET WITH NO
       SIGNIFICANT WEATHER AND/OR OBSTRUCTIONS TO VISIBILITY.

   

NEZ044-045-051>053-067-151000-
OMAHA AREA
  
CITY           SKY/WX    TMP DP  RH WIND       PRES   REMARKS
OMAHA EPPLEY   PTCLDY    67  60  78 N3        30.09S                  
BLAIR          PTCLDY    69  58  68 NE7       30.10S                  
FREMONT        CLOUDY    73  60  65 CALM      30.10R                  
MILLARD        CLEAR     71  60  67 CALM      30.09S                  
OFFUTT AFB     CLEAR     72  56  57 NE3       30.09R                  
PLATTSMOUTH    CLEAR     70  57  62 SE3       30.10R                  
WAHOO          PTCLDY    69  64  83 E3        30.09S                  
$$
  

SKY/WX - Weather  TMP - Temperature  DP - Dew Point  RH - Relative Humidity
WIND - Wind Direction/Speed PRES - Barometric Pressure VSB - Visibility
WCI - Wind Chill Index E13G22 Wind - East Wind 13 mph/Gusts of 22 mph